Location: *
(40.7873°S, 98.7174°E)
Time: 11:47:19
(UTC+00:00)

Kosmos-1816 - Pass Details

Date: 23 June 2024
Orbit: 959 x 1007 km, 82.9° (Epoch: 23 July)

Event Time Altitude Azimuth Distance (km) Brightness Sun altitude
Rises 11:22:23 0° 181° (S) 3,763 8.9 -14.1°
Reaches altitude 10° 11:25:09 10° 173° (S) 2,802 8.1 -14.6°
Maximum altitude 11:31:09 39° 104° (ESE) 1,453 6.4 -15.7°
Drops below altitude 10° 11:37:00 10° 36° (NE) 2,742 8.2 -16.8°
Sets 11:39:40 0° 28° (NNE) 3,675 8.9 -17.2°
